Date String (YYYY-MM-DD hh:mm:ss) UTC,Instrument flags,Ambient pressure (hPa),Sample flow (lpm),Bypass flow (lpm),Sample temperature (°C),Ambient temperature (°C),ASC tube jacket temperature (°C),LED temperature (°C),Box temperature (°C),Sample RH (%),Span deviation,Mass concentration (μg/m³),Mass concentration (μg/m³),Mass concentration (μg/m³)
DateTimeUTC,F1_M11,P_M11,Q1_M11,Q2_M11,T1_M11,T2_M11,T3_M11,T4_M11,T5_M11,U1_M11,ZSPAN_M11,X0_M11,X2_M11,X1_M11
2022-11-20 18:00:00,,0829.5,5.01,0.00,23.8,22.6,00.0,32.7,25.5,08.1,0000.0,0008.48,0004.09,0003.79
2022-11-20 18:01:00,,0829.5,4.99,0.00,23.8,22.6,00.0,32.7,25.6,08.4,0000.0,0008.58,0004.14,0003.81
2022-11-20 18:02:00,,0829.6,4.99,0.00,23.8,22.7,00.0,32.7,25.6,08.7,0000.0,0008.64,0004.20,0003.85
2022-11-20 18:03:00,,0829.6,4.99,0.00,23.9,22.7,00.0,32.7,25.6,08.7,0000.0,0008.56,0004.26,0003.90
2022-11-20 18:04:00,,0829.5,5.02,0.00,23.9,22.7,00.0,32.7,25.6,08.8,0000.0,0008.45,0004.30,0003.95
2022-11-20 18:05:00,,0829.4,4.99,0.00,23.9,22.8,00.0,32.7,25.7,08.7,0000.0,0009.02,0004.36,0003.99
2022-11-20 18:06:00,,0829.3,4.99,0.00,23.9,22.8,00.0,32.7,25.7,08.7,0000.0,0009.58,0004.44,0004.02
2022-11-20 18:07:00,,0829.3,5.00,0.00,23.9,22.8,00.0,32.7,25.8,08.7,0000.0,0010.63,0004.49,0004.05
2022-11-20 18:08:00,,0829.4,5.00,0.00,24.0,22.9,00.0,32.8,25.9,09.0,0000.0,0010.45,0004.51,0004.07
2022-11-20 18:09:00,,0829.3,5.01,0.00,24.0,22.9,00.0,32.8,25.9,08.8,0000.0,0010.28,0004.54,0004.09
2022-11-20 18:10:00,,0829.3,5.00,0.00,24.0,22.9,00.0,32.8,25.9,08.9,0000.0,0010.22,0004.55,0004.12
2022-11-20 18:11:00,,0829.3,5.00,0.00,24.0,23.0,00.0,32.8,25.9,09.0,0000.0,0010.30,0004.59,0004.15
2022-11-20 18:12:00,,0829.4,4.99,0.00,24.0,23.0,00.0,32.8,25.9,08.8,0000.0,0010.35,0004.61,0004.18
2022-11-20 18:13:00,,0829.3,5.00,0.00,24.1,23.0,00.0,32.8,26.0,09.0,0000.0,0010.33,0004.62,0004.19
2022-11-20 18:14:00,,0829.3,5.02,0.00,24.1,23.1,00.0,32.8,26.0,08.7,0000.0,0010.54,0004.62,0004.21
2022-11-20 18:15:00,,0829.3,5.00,0.00,24.1,23.1,00.0,32.8,26.0,08.5,0000.0,0010.52,0004.66,0004.23
2022-11-20 18:16:00,,0829.2,5.00,0.00,24.1,23.1,00.0,32.9,26.0,08.3,0000.0,0010.05,0004.67,0004.25
2022-11-20 18:17:00,,0829.3,4.99,0.00,24.1,23.2,00.0,32.9,26.1,08.2,0000.0,0009.53,0004.65,0004.26
2022-11-20 18:18:00,,0829.2,5.00,0.00,24.2,23.2,00.0,32.9,26.1,08.3,0000.0,0008.64,0004.64,0004.27
2022-11-20 18:19:00,,0829.2,5.03,0.00,24.2,23.2,00.0,32.9,26.1,08.1,0000.0,0008.37,0004.62,0004.28
2022-11-20 18:20:00,,0829.3,4.99,0.00,24.2,23.2,00.0,33.0,26.1,08.2,0000.0,0008.43,0004.63,0004.28
2022-11-20 18:21:00,,0829.2,4.99,0.00,24.2,23.3,00.0,33.0,26.2,08.2,0000.0,0008.50,0004.64,0004.29
2022-11-20 18:22:00,,0829.2,4.99,0.00,24.3,23.3,00.0,33.0,26.2,08.2,0000.0,0008.44,0004.65,0004.30
2022-11-20 18:23:00,,0829.3,5.01,0.00,24.3,23.3,00.0,33.0,26.2,08.3,0000.0,0008.37,0004.63,0004.31
2022-11-20 18:24:00,,0829.3,4.99,0.00,24.3,23.3,00.0,33.0,26.2,08.5,0000.0,0008.29,0004.61,0004.32
2022-11-20 18:25:00,,0829.3,5.00,0.00,24.3,23.4,00.0,33.0,26.3,08.7,0000.0,0008.20,0004.63,0004.33
2022-11-20 18:26:00,,0829.3,5.00,0.00,24.3,23.4,00.0,33.1,26.3,08.7,0000.0,0007.80,0004.65,0004.35
2022-11-20 18:27:00,,0829.2,5.00,0.00,24.4,23.4,00.0,33.1,26.3,08.8,0000.0,0007.94,0004.67,0004.37
2022-11-20 18:28:00,,0829.2,5.01,0.00,24.4,23.4,00.0,33.1,26.3,08.8,0000.0,0008.02,0004.67,0004.39
2022-11-20 18:29:00,,0829.2,5.00,0.00,24.4,23.5,00.0,33.1,26.3,08.6,0000.0,0008.30,0004.68,0004.40
2022-11-20 18:30:00,,0829.2,5.01,0.00,24.4,23.5,00.0,33.1,26.4,08.7,0000.0,0008.39,0004.71,0004.42
2022-11-20 18:31:00,,0829.2,4.99,0.00,24.5,23.5,00.0,33.2,26.4,08.9,0000.0,0008.30,0004.70,0004.44
2022-11-20 18:32:00,,0829.2,5.00,0.00,24.5,23.5,00.0,33.2,26.4,08.8,0000.0,0008.24,0004.73,0004.46
2022-11-20 18:33:00,,0829.1,5.01,0.00,24.5,23.5,00.0,33.2,26.4,08.6,0000.0,0008.34,0004.75,0004.47
2022-11-20 18:34:00,,0829.2,5.00,0.00,24.5,23.6,00.0,33.2,26.5,08.7,0000.0,0008.55,0004.77,0004.49
2022-11-20 18:35:00,,0829.1,5.00,0.00,24.5,23.6,00.0,33.3,26.5,08.7,0000.0,0008.59,0004.80,0004.52
2022-11-20 18:36:00,,0829.1,4.99,0.00,24.6,23.6,00.0,33.3,26.5,09.0,0000.0,0008.63,0004.82,0004.54
2022-11-20 18:37:00,,0829.1,5.00,0.00,24.6,23.6,00.0,33.3,26.5,08.8,0000.0,0008.54,0004.85,0004.56
2022-11-20 18:38:00,,0829.2,5.00,0.00,24.6,23.6,00.0,33.3,26.5,08.9,0000.0,0008.41,0004.86,0004.58
2022-11-20 18:39:00,,0829.2,5.00,0.00,24.6,23.7,00.0,33.4,26.5,09.1,0000.0,0008.39,0004.91,0004.61
2022-11-20 18:40:00,,0829.1,5.00,0.00,24.6,23.7,00.0,33.4,26.6,09.2,0000.0,0008.06,0004.94,0004.63
2022-11-20 18:41:00,,0829.1,5.00,0.00,24.7,23.7,00.0,33.4,26.6,09.0,0000.0,0008.05,0004.95,0004.64
2022-11-20 18:42:00,,0829.1,5.00,0.00,24.7,23.7,00.0,33.4,26.6,09.2,0000.0,0008.11,0004.99,0004.66
2022-11-20 18:43:00,,0829.1,5.00,0.00,24.7,23.7,00.0,33.4,26.6,09.2,0000.0,0008.17,0005.00,0004.68
2022-11-20 18:44:00,,0829.1,5.00,0.00,24.7,23.7,00.0,33.4,26.6,09.2,0000.0,0008.44,0005.06,0004.71
2022-11-20 18:45:00,,0829.0,5.00,0.00,24.7,23.7,00.0,33.5,26.6,09.2,0000.0,0008.59,0005.12,0004.74
2022-11-20 18:46:00,,0829.1,5.00,0.00,24.7,23.8,00.0,33.5,26.6,09.3,0000.0,0008.74,0005.18,0004.76
2022-11-20 18:47:00,,0829.0,5.00,0.00,24.8,23.8,00.0,33.5,26.7,09.3,0000.0,0008.95,0005.25,0004.78
2022-11-20 18:48:00,,0829.1,5.00,0.00,24.8,23.8,00.0,33.5,26.7,09.3,0000.0,0009.24,0005.31,0004.81
2022-11-20 18:49:00,,0829.0,5.00,0.00,24.8,23.8,00.0,33.5,26.7,09.4,0000.0,0009.87,0005.37,0004.83
2022-11-20 18:50:00,,0829.0,5.00,0.00,24.8,23.8,00.0,33.6,26.7,09.5,0000.0,0010.66,0005.44,0004.87
2022-11-20 18:51:00,,0829.0,5.00,0.00,24.8,23.8,00.0,33.6,26.7,09.8,0000.0,0010.98,0005.48,0004.90
2022-11-20 18:52:00,,0828.9,5.00,0.00,24.8,23.9,00.0,33.6,26.7,09.8,0000.0,0011.32,0005.55,0004.95
2022-11-20 18:53:00,,0828.9,5.00,0.00,24.9,23.9,00.0,33.6,26.8,09.7,0000.0,0012.24,0005.66,0005.00
2022-11-20 18:54:00,,0828.8,5.00,0.00,24.9,23.9,00.0,33.6,26.8,09.6,0000.0,0012.28,0005.71,0005.04
2022-11-20 18:55:00,,0828.9,5.01,0.00,24.9,23.9,00.0,33.6,26.8,09.0,0000.0,0012.19,0005.70,0005.07
2022-11-20 18:56:00,,0829.0,5.00,0.00,24.9,23.9,00.0,33.6,26.8,08.8,0000.0,0012.14,0005.73,0005.10
2022-11-20 18:57:00,,0829.3,5.00,0.00,24.9,23.9,00.0,33.7,26.8,08.8,0000.0,0012.41,0005.78,0005.14
2022-11-20 18:58:00,,0828.9,5.01,0.00,25.0,24.0,00.0,33.7,26.8,09.1,0000.0,0012.76,0005.78,0005.17
2022-11-20 18:59:00,,0828.7,5.01,0.00,25.0,24.0,00.0,33.7,26.9,09.4,0000.0,0012.98,0005.79,0005.20
